Home > Weather > Mandurah > Past weeks

Flag for Australia Past Weather in Mandurah, Western Australia, Australia — Yesterday and Last 2 Weeks

Now
63 °F

Mild.


Feels Like: 63 °F
Forecast: 61 / 65 °F
Wind: 13 mph from Southwest

Location: Mandurah Aws

Current Time: May 24, 2016 at 4:13:35 PM

Latest Report: May 24, 2016 at 3:00 PM


Visibility: N/A

Pressure: 29.76 "Hg

Humidity: 63%

Dew Point: 50 °F

Location of MandurahLocation

Past Weather in Mandurah — Graph

°F

Mandurah Temperature Yesterday

Maximum temperature yesterday: 67 °F (at 9:00 PM)
Minimum temperature yesterday: 58 °F (at 6:00 AM)
Average temperature yesterday: 63 °F

High & Low Weather Summary for the Past Weeks

 TemperatureHumidityPressure
High71 °F (May 12, 2:00 PM)100% (May 10, 8:00 AM)30.38 "Hg (May 10, 8:00 AM)
Low52 °F (May 12, 6:00 AM)53% (May 10, 2:00 PM)29.32 "Hg (May 21, 5:00 AM)
Average63 °F75%30.02 "Hg
* Reported May 9 3:00 PM — May 24 3:00 PM, Mandurah, Weather by CustomWeather, © 2016

Note: Actual official high and low records may vary slightly from our data, if they occured in-between our weather recording intervals... More about our weather records

Advertising

Mandurah Weather History for the Previous 24 Hours

Scroll right to see more
 ConditionsComfort  
Time TempWeatherWind HumidityBarometerVisibility
3:00 PM
Tue, May 24
63 °FMild.13 mph63%29.76 "HgN/A
2:00 PM62 °FCool.12 mph67%29.75 "HgN/A
12:00 PM63 °FMild.12 mph63%29.75 "HgN/A
11:00 AM64 °FMild.14 mph59%29.74 "HgN/A
9:00 AM64 °FMild.17 mph58%29.72 "HgN/A
8:00 AM64 °FMild.15 mph65%29.69 "HgN/A
6:00 AM64 °FMild.17 mph87%29.61 "HgN/A
5:00 AM63 °FMild.16 mph100%29.57 "HgN/A
3:00 AM64 °FFog.33 mph100%29.55 "HgN/A
2:00 AM62 °FCool.33 mph100%29.58 "HgN/A
12:00 AM65 °FMild.26 mph85%29.67 "HgN/A
11:00 PM
Mon, May 23
67 °FMild.26 mph75%29.68 "HgN/A
9:00 PM67 °FMild.26 mph70%29.72 "HgN/A
8:00 PM67 °FMild.23 mph70%29.78 "HgN/A
6:00 PM65 °FMild.18 mph64%29.81 "HgN/A
5:00 PM65 °FMild.24 mph60%29.82 "HgN/A
Weather by CustomWeather, © 2016

See weather overviewHow to use our weather pages